TimeCEST,TemperatureF,Dew PointF,Humidity,Sea Level PressureIn,VisibilityMPH,Wind Direction,Wind SpeedMPH,Gust SpeedMPH,PrecipitationIn,Events,Conditions,WindDirDegrees,DateUTC
12:00 AM,69.8,66.2,88,30.06,6.2,West,4.6,-,N/A,,Scattered Clouds,270,2012-10-05 22:00:00
1:00 AM,68.0,66.2,94,30.06,6.2,West,4.6,-,N/A,,Scattered Clouds,270,2012-10-05 23:00:00
2:00 AM,68.0,64.4,88,30.06,6.2,Variable,2.3,-,N/A,,Scattered Clouds,0,2012-10-06 00:00:00
3:00 AM,68.0,64.4,88,30.09,6.2,Variable,2.3,-,N/A,,Scattered Clouds,0,2012-10-06 01:00:00
4:00 AM,66.2,64.4,94,30.09,6.2,Variable,2.3,-,N/A,,Scattered Clouds,0,2012-10-06 02:00:00
5:00 AM,66.2,64.4,94,30.09,6.2,SSW,3.5,-,N/A,,Scattered Clouds,210,2012-10-06 03:00:00
6:00 AM,66.2,64.4,94,30.09,6.2,East,1.2,-,N/A,,Scattered Clouds,90,2012-10-06 04:00:00
7:00 AM,66.2,64.4,94,30.09,6.2,Calm,Calm,-,N/A,,Scattered Clouds,0,2012-10-06 05:00:00
8:00 AM,68.0,64.4,88,30.09,5.0,Calm,Calm,-,N/A,,Scattered Clouds,0,2012-10-06 06:00:00
9:00 AM,66.2,64.4,94,30.12,4.3,Calm,Calm,-,N/A,,Scattered Clouds,0,2012-10-06 07:00:00
10:00 AM,69.8,66.2,88,30.15,3.7,Variable,1.2,-,N/A,,Partly Cloudy,0,2012-10-06 08:00:00
11:00 AM,73.4,64.4,73,30.15,5.0,Calm,Calm,-,N/A,,Partly Cloudy,0,2012-10-06 09:00:00
12:00 PM,75.2,66.2,73,30.15,5.0,Variable,3.5,-,N/A,,Scattered Clouds,0,2012-10-06 10:00:00
1:00 PM,77.0,66.2,69,30.15,6.2,Variable,1.2,-,N/A,,Scattered Clouds,0,2012-10-06 11:00:00
2:00 PM,80.6,64.4,58,30.12,6.2,North,4.6,-,N/A,,Scattered Clouds,360,2012-10-06 12:00:00
3:00 PM,82.4,62.6,51,30.12,6.2,Variable,2.3,-,N/A,,Partly Cloudy,0,2012-10-06 13:00:00
4:00 PM,82.4,62.6,51,30.12,-9999.0,Variable,3.5,-,N/A,,Clear,0,2012-10-06 14:00:00
5:00 PM,84.2,60.8,45,30.09,-9999.0,Variable,1.2,-,N/A,,Clear,0,2012-10-06 15:00:00
6:00 PM,82.4,60.8,48,30.09,-9999.0,Variable,1.2,-,N/A,,Clear,0,2012-10-06 16:00:00
7:00 PM,82.4,60.8,48,30.09,-9999.0,NNW,4.6,-,N/A,,Clear,330,2012-10-06 17:00:00
8:00 PM,77.0,62.6,61,30.12,-9999.0,NW,4.6,-,N/A,,Clear,310,2012-10-06 18:00:00
9:00 PM,73.4,60.8,65,30.12,-9999.0,West,3.5,-,N/A,,Clear,270,2012-10-06 19:00:00
10:00 PM,71.6,62.6,73,30.12,-9999.0,West,3.5,-,N/A,,Clear,270,2012-10-06 20:00:00
11:00 PM,69.8,62.6,78,30.15,-9999.0,Variable,1.2,-,N/A,,Clear,0,2012-10-06 21:00:00